Home   Weather   Damascus   Past weeks
Flag for Syria

Past Weather in Damascus, Syria — Yesterday and Last 2 Weeks

Now
48 °F

Partly sunny.


Feels Like: 40 °F
Forecast: 47 / 33 °F
Wind: 30 mph from Southwest

Location: Damascus Int. Airport

Current Time: Jan 16, 2019 at 4:29:17 pm

Latest Report: Jan 16, 2019 at 4:00 pm


Visibility: 4 mi

Pressure: 29.65 "Hg (27.28 "Hg at 689m altitude)

Humidity: 71%

Dew Point: 39 °F

Location of DamascusLocation

Past Weather in Damascus — Graph

°F

Damascus Temperature Yesterday

Maximum temperature yesterday: 54 °F (at 12:00 pm)
Minimum temperature yesterday: 37 °F (at 11:00 pm)
Average temperature yesterday: 46 °F

High & Low Weather Summary for the Past Weeks

 TemperatureHumidityPressure
High73 °F (Jan 10, 11:00 am)100% (Jan 10, 11:00 am)30.33 "Hg (Jan 10, 11:00 am)
Low28 °F (Jan 10, 5:00 am)31% (Jan 13, 1:00 pm)29.65 "Hg (Jan 16, 2:00 pm)
Average44 °F74%30.01 "Hg
* Reported Jan 1 3:00 pm — Jan 16 3:00 pm, Damascus. Weather by CustomWeather, © 2019

Note: Actual official high and low records may vary slightly from our data, if they occured in-between our weather recording intervals... More about our weather records

Advertising

Damascus Weather History for the Previous 24 Hours

Scroll right to see more
 ConditionsComfort  
Time TempWeatherWind HumidityBarometerVisibility
3:00 pm
Wed, Jan 16
52 °FScattered clouds.32 mph50%29.65 "HgN/A
2:00 pm54 °FBroken clouds.43 mph44%29.65 "HgN/A
1:00 pm52 °FBroken clouds.29 mph47%29.68 "HgN/A
12:00 pm52 °FBroken clouds.35 mph47%29.71 "HgN/A
11:00 am50 °FScattered clouds.28 mph54%29.77 "HgN/A
10:00 am46 °FScattered clouds.14 mph62%29.80 "HgN/A
9:00 am43 °FScattered clouds.7 mph61%29.80 "HgN/A
8:00 am39 °FScattered clouds.9 mph75%29.83 "HgN/A
7:00 am34 °FChilly.5 mph87%29.83 "HgN/A
6:00 am36 °FClear.12 mph81%29.83 "Hg10 mi
5:00 am34 °FClear.12 mph87%29.83 "Hg10 mi
4:00 am34 °FClear.12 mph87%29.83 "Hg10 mi
3:00 am34 °FPassing clouds.12 mph87%29.86 "HgN/A
2:00 am36 °FClear.No wind81%29.89 "Hg10 mi
1:00 am34 °FClear.No wind93%29.89 "Hg10 mi
12:00 am36 °FClear.No wind87%29.89 "Hg10 mi
11:00 pm
Tue, Jan 15
37 °FClear.7 mph81%29.92 "Hg10 mi
10:00 pm39 °FPassing clouds.No wind81%29.95 "HgN/A
9:00 pm39 °FPassing clouds.No wind81%29.92 "Hg5 mi
8:00 pm39 °FPassing clouds.5 mph81%29.95 "Hg5 mi
7:00 pm45 °FPassing clouds.5 mph71%29.95 "HgN/A
6:00 pm48 °FPassing clouds.5 mph62%29.95 "HgN/A
5:00 pm50 °FPassing clouds.7 mph62%29.95 "HgN/A
Weather by CustomWeather, © 2019

See weather overview